| time (UTC) | temp F | wind direction | speed MPH | gust MPH | rain 1hr in | rain 24hr in | rain mn in | humidity % | barometer mb |
| 20260502213027 | 48 | 204 | 0.0 | 0.0 | 0.00 | 0.00 | 0.00 | 74 | 1009.0 |
| 20260502211527 | 49 | 204 | 0.0 | 0.0 | 0.00 | 0.00 | 0.00 | 72 | 1009.2 |
| 20260502210026 | 49 | 204 | 0.0 | 0.0 | 0.00 | 0.00 | 0.00 | 70 | 1009.1 |
| 20260502204534 | 51 | 204 | 0.0 | 0.0 | 0.00 | 0.00 | 0.00 | 68 | 1009.0 |
| 20260502203031 | 51 | 204 | 0.0 | 0.0 | 0.00 | 0.00 | 0.00 | 67 | 1009.1 |
| 20260502201526 | 52 | 251 | 0.0 | 0.0 | 0.00 | 0.00 | 0.00 | 65 | 1009.1 |
| 20260502200043 | 53 | 243 | 0.0 | 0.0 | 0.00 | 0.00 | 0.00 | 61 | 1009.2 |
| 20260502194524 | 54 | 242 | 0.0 | 0.0 | 0.00 | 0.00 | 0.00 | 60 | 1009.1 |
| 20260502193025 | 54 | 244 | 0.0 | 0.0 | 0.00 | 0.00 | 0.00 | 58 | 1009.0 |
| 20260502191523 | 55 | 242 | 0.0 | 0.0 | 0.00 | 0.00 | 0.00 | 56 | 1009.0 |
| 20260502190021 | 55 | 256 | 0.0 | 0.0 | 0.00 | 0.00 | 0.00 | 56 | 1008.8 |
| 20260502184524 | 56 | 268 | 0.0 | 0.0 | 0.00 | 0.00 | 0.00 | 55 | 1008.9 |
| 20260502183021 | 56 | 267 | 0.0 | 0.0 | 0.00 | 0.00 | 0.00 | 54 | 1008.9 |
| 20260502181526 | 56 | 268 | 0.0 | 0.0 | 0.00 | 0.00 | 0.00 | 52 | 1008.9 |
| 20260502163018 | 59 | 261 | 0.0 | 10.0 | 0.00 | 0.00 | 0.00 | 43 | 1009.3 |
| 20260502161512 | 59 | 273 | 4.0 | 14.0 | 0.00 | 0.00 | 0.00 | 43 | 1009.4 |
| 20260502151510 | 60 | 295 | 1.0 | 9.0 | 0.00 | 0.00 | 0.00 | 37 | 1010.0 |
| 20260502130107 | 64 | 317 | 1.0 | 10.0 | 0.00 | 0.00 | 0.00 | 30 | 1010.3 |
| 20260502123055 | 64 | 280 | 0.0 | 8.0 | 0.00 | 0.00 | 0.00 | 31 | 1010.4 |
| 20260502121600 | 64 | 261 | 1.0 | 10.0 | 0.00 | 0.00 | 0.00 | 30 | 1010.6 |
| 20260502120111 | 64 | 220 | 0.0 | 10.0 | 0.00 | 0.00 | 0.00 | 28 | 1010.7 |
| 20260502114556 | 64 | 223 | 5.0 | 10.0 | 0.00 | 0.00 | 0.00 | 30 | 1010.7 |
| 20260502113109 | 63 | 232 | 2.0 | 12.0 | 0.00 | 0.00 | 0.00 | 30 | 1010.9 |
| 20260502111549 | 64 | 256 | 1.0 | 12.0 | 0.00 | 0.00 | 0.00 | 30 | 1010.9 |
| 20260502110049 | 63 | 256 | 2.0 | 10.0 | 0.00 | 0.00 | 0.00 | 29 | 1010.9 |
| 20260502104546 | 64 | 269 | 4.0 | 11.0 | 0.00 | 0.00 | 0.00 | 29 | 1011.0 |
| 20260502103108 | 64 | 245 | 1.0 | 12.0 | 0.00 | 0.00 | 0.00 | 28 | 1011.1 |
| 20260502101550 | 64 | 251 | 2.0 | 11.0 | 0.00 | 0.00 | 0.00 | 28 | 1011.2 |
| 20260502071502 | 54 | 92 | 1.0 | 5.0 | 0.00 | 0.00 | 0.00 | 54 | 1012.9 |
| 20260502070104 | 52 | 82 | 0.0 | 0.0 | 0.00 | 0.00 | 0.00 | 58 | 1013.2 |
| 20260502064557 | 50 | 340 | 0.0 | 0.0 | 0.00 | 0.00 | 0.00 | 65 | 1013.3 |
| 20260502063119 | 48 | 323 | 0.0 | 0.0 | 0.00 | 0.00 | 0.00 | 66 | 1013.6 |
| 20260502061554 | 48 | 221 | 0.0 | 0.0 | 0.00 | 0.00 | 0.00 | 68 | 1013.7 |
| 20260502060058 | 46 | 221 | 0.0 | 0.0 | 0.00 | 0.00 | 0.00 | 71 | 1014.0 |
| 20260502054607 | 46 | 221 | 0.0 | 0.0 | 0.00 | 0.00 | 0.00 | 70 | 1014.0 |
| 20260502053051 | 45 | 221 | 0.0 | 0.0 | 0.00 | 0.00 | 0.00 | 72 | 1014.0 |
| 20260502051549 | 44 | 221 | 0.0 | 0.0 | 0.00 | 0.00 | 0.00 | 76 | 1013.9 |
| 20260502050049 | 43 | 220 | 0.0 | 0.0 | 0.00 | 0.00 | 0.00 | 77 | 1014.0 |
| 20260502044546 | 43 | 220 | 0.0 | 0.0 | 0.00 | 0.00 | 0.00 | 77 | 1014.2 |
| 20260502043056 | 42 | 220 | 0.0 | 0.0 | 0.00 | 0.00 | 0.00 | 82 | 1014.2 |
| 20260502041543 | 41 | 220 | 0.0 | 0.0 | 0.00 | 0.00 | 0.00 | 80 | 1014.3 |
| 20260502040043 | 40 | 220 | 0.0 | 0.0 | 0.00 | 0.00 | 0.00 | 79 | 1014.5 |
| 20260502034538 | 40 | 220 | 0.0 | 0.0 | 0.00 | 0.00 | 0.00 | 78 | 1014.6 |
| 20260502033041 | 40 | 220 | 0.0 | 0.0 | 0.00 | 0.00 | 0.00 | 77 | 1014.7 |
| 20260502031533 | 41 | 220 | 0.0 | 0.0 | 0.00 | 0.00 | 0.00 | 75 | 1014.8 |
| 20260502030032 | 41 | 220 | 0.0 | 0.0 | 0.00 | 0.00 | 0.00 | 74 | 1014.8 |
| 20260502024528 | 42 | 220 | 0.0 | 0.0 | 0.00 | 0.00 | 0.00 | 72 | 1015.0 |
| 20260502023025 | 43 | 220 | 0.0 | 0.0 | 0.00 | 0.00 | 0.00 | 69 | 1015.3 |
| 20260502021520 | 45 | 220 | 0.0 | 0.0 | 0.00 | 0.00 | 0.00 | 66 | 1015.4 |
| 20260502020018 | 45 | 220 | 0.0 | 0.0 | 0.00 | 0.00 | 0.00 | 67 | 1015.4 |
| 20260502014515 | 46 | 220 | 0.0 | 0.0 | 0.00 | 0.00 | 0.00 | 65 | 1015.6 |
| 20260502013011 | 47 | 220 | 0.0 | 0.0 | 0.00 | 0.00 | 0.00 | 64 | 1015.7 |
| 20260502011508 | 47 | 220 | 0.0 | 0.0 | 0.00 | 0.00 | 0.00 | 62 | 1015.8 |
| 20260502010006 | 48 | 220 | 0.0 | 0.0 | 0.00 | 0.00 | 0.00 | 62 | 1016.1 |
| 20260502004505 | 49 | 229 | 0.0 | 0.0 | 0.00 | 0.00 | 0.00 | 61 | 1016.1 |
| 20260502003004 | 48 | 229 | 0.0 | 0.0 | 0.00 | 0.00 | 0.00 | 63 | 1016.2 |
| 20260502001503 | 48 | 236 | 0.0 | 0.0 | 0.00 | 0.00 | 0.00 | 63 | 1016.2 |
| 20260502000001 | 48 | 236 | 0.0 | 0.0 | 0.00 | 0.00 | 0.00 | 62 | 1016.3 |
| 20260501234600 | 49 | 236 | 0.0 | 0.0 | 0.00 | 0.00 | 0.00 | 61 | 1016.3 |
| 20260501233100 | 49 | 251 | 0.0 | 0.0 | 0.00 | 0.00 | 0.00 | 61 | 1016.4 |
| 20260501231556 | 50 | 251 | 0.0 | 0.0 | 0.00 | 0.00 | 0.00 | 60 | 1016.4 |
| 20260501224554 | 49 | 274 | 0.0 | 0.0 | 0.00 | 0.00 | 0.00 | 63 | 1016.8 |
| 20260501223057 | 50 | 284 | 0.0 | 0.0 | 0.00 | 0.00 | 0.00 | 64 | 1016.8 |
| 20260501221547 | 51 | 285 | 0.0 | 0.0 | 0.00 | 0.00 | 0.00 | 60 | 1016.8 |
| 20260501220042 | 53 | 285 | 0.0 | 0.0 | 0.00 | 0.00 | 0.00 | 53 | 1016.8 |
| 20260501214542 | 54 | 232 | 0.0 | 0.0 | 0.00 | 0.00 | 0.00 | 51 | 1016.7 |